MAS1427 WMKC-WMKK

Flight info

Callsign MAS1427
Flight time 0h 46m
Altitude 28000
Route RUPOS G466 PULIP
Aircraft B738/M-SDE2E3FGHIRWXY/LB1

Departure

Time 2026-04-20 06:20
Airport Sultan Ismail Petra Airport (WMKC)

Arrival

Time 2026-04-20 07:06
Airport Kuala Lumpur International Airport (WMKK)
Time Latitude Longitude Altitude Speed Heading
2026-04-20 05:52 6.16955 102.29201 31 ft 0 kts 11°
2026-04-20 06:12 6.16950 102.29199 31 ft 2 kts 11°
2026-04-20 06:12 6.16939 102.29197 31 ft 0 kts 11°
2026-04-20 06:13 6.16926 102.29196 31 ft 2 kts 340°
2026-04-20 06:13 6.16913 102.29205 30 ft 2 kts 306°
2026-04-20 06:13 6.16908 102.29215 30 ft 0 kts 283°
2026-04-20 06:13 6.16907 102.29222 30 ft 0 kts 279°
2026-04-20 06:16 6.16909 102.29212 30 ft 4 kts 280°
2026-04-20 06:16 6.16917 102.29165 30 ft 8 kts 272°
2026-04-20 06:16 6.16891 102.29112 29 ft 10 kts 234°
2026-04-20 06:16 6.16842 102.29047 29 ft 12 kts 232°
2026-04-20 06:17 6.16794 102.28982 29 ft 10 kts 234°
2026-04-20 06:17 6.16759 102.28924 29 ft 9 kts 256°
2026-04-20 06:17 6.16769 102.28816 27 ft 22 kts 279°
2026-04-20 06:17 6.16795 102.28666 26 ft 20 kts 280°
2026-04-20 06:18 6.16817 102.28538 26 ft 14 kts 280°
2026-04-20 06:18 6.16838 102.28470 26 ft 5 kts 227°
2026-04-20 06:18 6.16822 102.28486 26 ft 4 kts 75°
2026-04-20 06:18 6.16822 102.28507 26 ft 0 kts 100°
2026-04-20 06:19 6.16796 102.28661 26 ft 57 kts 99°
2026-04-20 06:19 6.16687 102.29302 29 ft 127 kts 99°
2026-04-20 06:19 6.16506 102.30368 177 ft 169 kts 99°
2026-04-20 06:20 6.16317 102.31525 831 ft 173 kts 98°
2026-04-20 06:20 6.16107 102.32707 1487 ft 179 kts 111°
2026-04-20 06:20 6.15265 102.33629 1876 ft 190 kts 155°
2026-04-20 06:20 6.13986 102.34037 2390 ft 195 kts 164°
2026-04-20 06:21 6.12691 102.34413 2940 ft 199 kts 163°
2026-04-20 06:21 6.11305 102.34827 3288 ft 216 kts 163°
2026-04-20 06:21 6.09818 102.35241 3731 ft 231 kts 165°
2026-04-20 06:21 6.08221 102.35685 4143 ft 248 kts 164°
2026-04-20 06:22 6.06525 102.36177 4636 ft 264 kts 164°
2026-04-20 06:22 6.04729 102.36691 5226 ft 275 kts 164°
2026-04-20 06:22 6.02876 102.37219 5971 ft 280 kts 164°
2026-04-20 06:22 6.00980 102.37730 6753 ft 284 kts 169°
2026-04-20 06:23 5.99044 102.37745 7503 ft 288 kts 192°
2026-04-20 06:23 5.97196 102.36990 8306 ft 290 kts 209°
2026-04-20 06:23 5.95439 102.35980 9109 ft 294 kts 209°
2026-04-20 06:23 5.93640 102.34988 9904 ft 297 kts 208°
2026-04-20 06:24 5.91838 102.33991 10580 ft 306 kts 209°
2026-04-20 06:24 5.89905 102.32912 10876 ft 328 kts 209°
2026-04-20 06:24 5.87875 102.31777 11558 ft 337 kts 209°
2026-04-20 06:24 5.85829 102.30634 12331 ft 342 kts 209°
2026-04-20 06:25 5.83755 102.29474 13127 ft 347 kts 209°
2026-04-20 06:25 5.81640 102.28291 13929 ft 351 kts 209°
2026-04-20 06:25 5.79506 102.27098 14722 ft 355 kts 209°
2026-04-20 06:25 5.77363 102.25904 15501 ft 359 kts 208°
2026-04-20 06:26 5.75080 102.24832 16269 ft 363 kts 201°
2026-04-20 06:26 5.72677 102.24094 17004 ft 367 kts 192°
2026-04-20 06:26 5.70140 102.23654 17740 ft 371 kts 188°
2026-04-20 06:26 5.67617 102.23250 18436 ft 375 kts 189°
2026-04-20 06:27 5.65022 102.22804 19130 ft 378 kts 189°
2026-04-20 06:27 5.62451 102.22369 19795 ft 382 kts 189°
2026-04-20 06:27 5.59823 102.21933 20452 ft 386 kts 189°
2026-04-20 06:27 5.57148 102.21491 21096 ft 390 kts 189°
2026-04-20 06:28 5.54471 102.21048 21718 ft 393 kts 189°
2026-04-20 06:28 5.51791 102.20602 22316 ft 397 kts 189°
2026-04-20 06:28 5.49060 102.20142 22902 ft 400 kts 189°
2026-04-20 06:28 5.46308 102.19676 23470 ft 404 kts 189°
2026-04-20 06:29 5.43557 102.19213 24019 ft 407 kts 189°
2026-04-20 06:29 5.40723 102.18736 24568 ft 410 kts 189°
2026-04-20 06:29 5.37911 102.18263 25094 ft 414 kts 189°
2026-04-20 06:29 5.35079 102.17787 25605 ft 417 kts 189°
2026-04-20 06:30 5.32223 102.17307 26103 ft 420 kts 189°
2026-04-20 06:30 5.29320 102.16819 26591 ft 423 kts 189°
2026-04-20 06:30 5.26430 102.16334 27061 ft 426 kts 189°
2026-04-20 06:30 5.23503 102.15842 27521 ft 429 kts 189°
2026-04-20 06:31 5.20568 102.15349 27858 ft 432 kts 189°
2026-04-20 06:31 5.17570 102.14845 27856 ft 438 kts 189°
2026-04-20 06:31 5.14610 102.14349 27860 ft 433 kts 189°
2026-04-20 06:31 5.11639 102.13850 27859 ft 429 kts 189°
2026-04-20 06:32 5.08706 102.13357 27858 ft 429 kts 189°
2026-04-20 06:32 5.05784 102.12866 27859 ft 430 kts 189°
2026-04-20 06:32 5.02828 102.12370 27859 ft 431 kts 189°
2026-04-20 06:32 4.99874 102.11874 27858 ft 431 kts 189°
2026-04-20 06:33 4.96931 102.11381 27858 ft 431 kts 189°
2026-04-20 06:33 4.93984 102.10886 27859 ft 431 kts 189°
2026-04-20 06:33 4.91008 102.10387 27859 ft 431 kts 189°
2026-04-20 06:33 4.88075 102.09895 27859 ft 431 kts 189°
2026-04-20 06:34 4.85131 102.09400 27858 ft 431 kts 189°
2026-04-20 06:34 4.82155 102.08901 27858 ft 431 kts 189°
2026-04-20 06:34 4.76265 102.07913 27859 ft 431 kts 189°
2026-04-20 06:35 4.73301 102.07416 27858 ft 431 kts 189°
2026-04-20 06:35 4.70349 102.06921 27858 ft 430 kts 189°
2026-04-20 06:35 4.67443 102.06434 27859 ft 429 kts 189°
2026-04-20 06:35 4.64511 102.05942 27859 ft 429 kts 189°
2026-04-20 06:36 4.61547 102.05445 27858 ft 429 kts 189°
2026-04-20 06:36 4.58610 102.04952 27849 ft 429 kts 189°
2026-04-20 06:36 4.55684 102.04462 27830 ft 430 kts 189°
2026-04-20 06:36 4.52734 102.03968 27832 ft 430 kts 189°
2026-04-20 06:37 4.49775 102.03472 27831 ft 430 kts 189°
2026-04-20 06:37 4.46855 102.02982 27831 ft 430 kts 189°
2026-04-20 06:37 4.43877 102.02483 27832 ft 430 kts 189°
2026-04-20 06:37 4.40922 102.01988 27832 ft 430 kts 189°
2026-04-20 06:38 4.37991 102.01497 27831 ft 430 kts 189°
2026-04-20 06:38 4.35062 102.01006 27831 ft 430 kts 189°
2026-04-20 06:38 4.32095 102.00510 27831 ft 430 kts 189°
2026-04-20 06:38 4.29177 102.00021 27831 ft 430 kts 189°
2026-04-20 06:39 4.26208 101.99523 27831 ft 430 kts 189°
2026-04-20 06:39 4.23276 101.99033 27831 ft 430 kts 189°
2026-04-20 06:39 4.20324 101.98538 27831 ft 430 kts 189°
2026-04-20 06:39 4.17385 101.98046 27831 ft 430 kts 189°
2026-04-20 06:40 4.14417 101.97549 27831 ft 430 kts 189°
2026-04-20 06:40 4.11499 101.97060 27831 ft 430 kts 189°
2026-04-20 06:40 4.08554 101.96568 27831 ft 430 kts 189°
2026-04-20 06:40 4.05581 101.96069 27831 ft 430 kts 189°
2026-04-20 06:41 4.02658 101.95580 27832 ft 430 kts 189°
2026-04-20 06:41 3.99714 101.95087 27831 ft 430 kts 189°
2026-04-20 06:41 3.96755 101.94592 27831 ft 429 kts 189°
2026-04-20 06:41 3.93813 101.94100 27832 ft 429 kts 189°
2026-04-20 06:42 3.90908 101.93614 27832 ft 429 kts 189°
2026-04-20 06:42 3.87928 101.93115 27832 ft 429 kts 189°
2026-04-20 06:42 3.84992 101.92624 27832 ft 432 kts 189°
2026-04-20 06:42 3.82028 101.92128 27832 ft 441 kts 189°
2026-04-20 06:43 3.78982 101.91618 27643 ft 446 kts 189°
2026-04-20 06:43 3.75931 101.91108 26780 ft 450 kts 189°
2026-04-20 06:43 3.72859 101.90595 26080 ft 449 kts 189°
2026-04-20 06:43 3.69797 101.90069 25386 ft 448 kts 190°
2026-04-20 06:44 3.66764 101.89354 24837 ft 442 kts 197°
2026-04-20 06:44 3.63906 101.88422 24828 ft 431 kts 199°
2026-04-20 06:44 3.61060 101.87464 24755 ft 427 kts 198°
2026-04-20 06:44 3.58262 101.86550 24235 ft 423 kts 198°
2026-04-20 06:45 3.55473 101.85640 23702 ft 420 kts 198°
2026-04-20 06:45 3.52724 101.84731 23177 ft 416 kts 198°
2026-04-20 06:45 3.49996 101.83823 22647 ft 413 kts 198°
2026-04-20 06:45 3.47286 101.82920 22119 ft 410 kts 198°
2026-04-20 06:46 3.44631 101.82034 21600 ft 407 kts 198°
2026-04-20 06:46 3.41933 101.81133 21070 ft 404 kts 198°
2026-04-20 06:46 3.39295 101.80250 20551 ft 401 kts 198°
2026-04-20 06:46 3.36670 101.79372 20033 ft 398 kts 198°
2026-04-20 06:47 3.34014 101.78608 19507 ft 395 kts 192°
2026-04-20 06:47 3.31342 101.78235 18994 ft 392 kts 183°
2026-04-20 06:47 3.28622 101.78311 18473 ft 389 kts 173°
2026-04-20 06:47 3.25979 101.78854 17959 ft 386 kts 164°
2026-04-20 06:48 3.23501 101.79755 17453 ft 383 kts 155°
2026-04-20 06:48 3.21186 101.81082 16933 ft 380 kts 144°
2026-04-20 06:48 3.19148 101.82711 16442 ft 377 kts 140°
2026-04-20 06:48 3.17146 101.84383 15942 ft 374 kts 141°
2026-04-20 06:49 3.15144 101.86013 15449 ft 372 kts 141°
2026-04-20 06:49 3.13154 101.87636 14970 ft 369 kts 141°
2026-04-20 06:49 3.11190 101.89254 14474 ft 367 kts 140°
2026-04-20 06:49 3.09218 101.90882 13972 ft 364 kts 140°
2026-04-20 06:50 3.07290 101.92473 13733 ft 354 kts 140°
2026-04-20 06:50 3.05452 101.93990 13645 ft 340 kts 140°
2026-04-20 06:50 3.03661 101.95467 13552 ft 327 kts 140°
2026-04-20 06:50 3.01933 101.96893 13392 ft 321 kts 140°
2026-04-20 06:51 3.00241 101.98291 13139 ft 314 kts 140°
2026-04-20 06:51 2.98559 101.99680 12887 ft 309 kts 140°
2026-04-20 06:51 2.96917 102.01037 12639 ft 307 kts 140°
2026-04-20 06:51 2.95259 102.02406 12389 ft 308 kts 140°
2026-04-20 06:52 2.93609 102.03770 12139 ft 307 kts 140°
2026-04-20 06:52 2.91967 102.05126 11889 ft 306 kts 140°
2026-04-20 06:52 2.90341 102.06470 11553 ft 307 kts 140°
2026-04-20 06:52 2.88699 102.07825 11114 ft 307 kts 140°
2026-04-20 06:53 2.87052 102.09186 10782 ft 304 kts 140°
2026-04-20 06:53 2.85435 102.10522 10580 ft 297 kts 140°
2026-04-20 06:53 2.83852 102.11829 10453 ft 297 kts 140°
2026-04-20 06:53 2.82160 102.13013 10301 ft 299 kts 155°
2026-04-20 06:54 2.80168 102.13470 10012 ft 298 kts 182°
2026-04-20 06:54 2.78181 102.13026 9784 ft 291 kts 202°
2026-04-20 06:54 2.76434 102.12054 9391 ft 290 kts 213°
2026-04-20 06:54 2.74764 102.10953 9021 ft 289 kts 212°
2026-04-20 06:55 2.73063 102.09873 8653 ft 287 kts 212°
2026-04-20 06:55 2.71384 102.08801 8292 ft 286 kts 212°
2026-04-20 06:55 2.69722 102.07735 7933 ft 285 kts 212°
2026-04-20 06:55 2.68083 102.06683 7577 ft 283 kts 212°
2026-04-20 06:56 2.66430 102.05622 7218 ft 282 kts 212°
2026-04-20 06:56 2.64786 102.04567 6860 ft 281 kts 212°
2026-04-20 06:56 2.63136 102.03507 6503 ft 279 kts 212°
2026-04-20 06:56 2.61512 102.02464 6150 ft 278 kts 212°
2026-04-20 06:57 2.59889 102.01422 5799 ft 277 kts 212°
2026-04-20 06:57 2.58284 102.00391 5469 ft 275 kts 212°
2026-04-20 06:57 2.56704 101.99377 5270 ft 267 kts 212°
2026-04-20 06:57 2.55165 101.98388 5177 ft 256 kts 212°
2026-04-20 06:58 2.53700 101.97446 5085 ft 245 kts 213°
2026-04-20 06:58 2.52460 101.96345 4893 ft 238 kts 234°
2026-04-20 06:58 2.51570 101.94981 4646 ft 234 kts 237°
2026-04-20 06:58 2.50659 101.93624 4400 ft 231 kts 236°
2026-04-20 06:59 2.49765 101.92310 4166 ft 228 kts 236°
2026-04-20 06:59 2.48881 101.91007 3931 ft 228 kts 236°
2026-04-20 06:59 2.48078 101.89648 3682 ft 228 kts 252°
2026-04-20 06:59 2.48044 101.88100 3497 ft 224 kts 289°
2026-04-20 07:00 2.48916 101.86836 3498 ft 226 kts 322°
2026-04-20 07:00 2.50226 101.85968 3491 ft 228 kts 326°
2026-04-20 07:00 2.51529 101.85080 3492 ft 227 kts 326°
2026-04-20 07:00 2.52852 101.84197 3492 ft 227 kts 327°
2026-04-20 07:01 2.54144 101.83329 3497 ft 219 kts 326°
2026-04-20 07:01 2.55355 101.82515 3489 ft 204 kts 326°
2026-04-20 07:01 2.56521 101.81737 3495 ft 192 kts 326°
2026-04-20 07:01 2.57573 101.81028 3334 ft 174 kts 326°
2026-04-20 07:02 2.58554 101.80373 3120 ft 171 kts 326°
2026-04-20 07:02 2.59547 101.79705 2891 ft 170 kts 327°
2026-04-20 07:02 2.60520 101.79054 2662 ft 169 kts 326°
2026-04-20 07:02 2.61502 101.78396 2427 ft 170 kts 326°
2026-04-20 07:03 2.62470 101.77748 2192 ft 168 kts 326°
2026-04-20 07:03 2.63453 101.77087 1961 ft 168 kts 326°
2026-04-20 07:03 2.64409 101.76449 1733 ft 166 kts 326°
2026-04-20 07:03 2.65363 101.75805 1510 ft 167 kts 326°
2026-04-20 07:04 2.66330 101.75160 1282 ft 165 kts 326°
2026-04-20 07:04 2.67252 101.74539 1070 ft 158 kts 326°
2026-04-20 07:04 2.68154 101.73935 853 ft 155 kts 326°
2026-04-20 07:04 2.69041 101.73338 644 ft 155 kts 326°
2026-04-20 07:05 2.69941 101.72736 428 ft 154 kts 325°
2026-04-20 07:05 2.70813 101.72141 212 ft 154 kts 327°
2026-04-20 07:05 2.71706 101.71555 90 ft 145 kts 326°
2026-04-20 07:05 2.72433 101.71067 76 ft 102 kts 326°
2026-04-20 07:06 2.72910 101.70748 75 ft 63 kts 326°
2026-04-20 07:06 2.73187 101.70563 75 ft 35 kts 326°
2026-04-20 07:06 2.73344 101.70476 75 ft 19 kts 345°
2026-04-20 07:06 2.73477 101.70459 75 ft 18 kts 358°
2026-04-20 07:07 2.73583 101.70457 75 ft 14 kts 359°
2026-04-20 07:07 2.73689 101.70451 75 ft 14 kts 337°
2026-04-20 07:07 2.73785 101.70389 75 ft 19 kts 327°
2026-04-20 07:07 2.73895 101.70316 75 ft 17 kts 327°
2026-04-20 07:08 2.74006 101.70241 75 ft 19 kts 326°
2026-04-20 07:08 2.74114 101.70167 75 ft 20 kts 326°
2026-04-20 07:08 2.74223 101.70096 75 ft 18 kts 326°
2026-04-20 07:08 2.74333 101.70022 75 ft 18 kts 327°
2026-04-20 07:09 2.74423 101.69962 75 ft 12 kts 326°
2026-04-20 07:09 2.74492 101.69968 75 ft 11 kts 44°
2026-04-20 07:09 2.74539 101.70034 75 ft 11 kts 56°
2026-04-20 07:09 2.74588 101.70106 75 ft 11 kts 56°
2026-04-20 07:10 2.74641 101.70171 75 ft 12 kts 26°
2026-04-20 07:10 2.74718 101.70145 75 ft 12 kts 326°
2026-04-20 07:10 2.74787 101.70099 75 ft 11 kts 326°
2026-04-20 07:10 2.74859 101.70051 75 ft 11 kts 326°
2026-04-20 07:11 2.74931 101.70003 75 ft 12 kts 326°
2026-04-20 07:11 2.75005 101.69975 75 ft 12 kts 22°
2026-04-20 07:11 2.75057 101.70043 75 ft 11 kts 56°
2026-04-20 07:11 2.75106 101.70114 75 ft 11 kts 56°
2026-04-20 07:12 2.75154 101.70186 75 ft 12 kts 55°
2026-04-20 07:12 2.75194 101.70245 75 ft 5 kts 56°
2026-04-20 07:12 2.75205 101.70272 75 ft 2 kts 111°
2026-04-20 07:12 2.75185 101.70287 75 ft 3 kts 146°
2026-04-20 07:13 2.75173 101.70295 75 ft 0 kts 146°